Pagina principale
METAR-TAF:

METAR-TAF

Aeroporti :

Paganella, Italia

latitudine: 46-09N, longitudine: 011-02E, altezza: 2125 m

Osservazione

Il bollettino è stato emesso 42 minuti fa, alle 15:55 UTC
Vento 28 kt da ovest/sud-ovest
Temperature 6°C
Umidità 93%
Pressione 1013 hPa
Visibilità 10 km o più
Poco nuvoloso ad un'altezza di 2500 ft

METAR: LIVP 151555Z 25028KT 9999 FEW025 06/05 Q1013 RMK BKN SCT180 MON CLD SCT VAL FOSCHIA SKC SUP VIS MIN 9999

Ora: 18:37 (16:37 UTC)


TAF: mancante

Osservazioni e previsioni meteorologiche di più di 4000 aeroporti (messaggi METAR e TAF).

Le stazioni disponibili sono rappresentate dai dischi gialli e rossi sulla carta.

Puntare il mouse per vedere il nome della stazione.

Clicca sopra per visualizzare le osservazioni e previsioni meteorologiche.

Per cambiare la mappa : fare clic sui pulsanti verdi con una croce nera per ingrandire, il pulsante verde con un trattino per diminuire, o sulla freccia verde per le mappe adiacenti.


METAR-TAF: